Location: Decatur Area Astronomy Club
(40.0275°N, 88.7810°W)
Time: 02:38:59
(UTC-05:00)

Amateur Radio Satellites - All Passes

Search period start: 18 September 2014 02:08
Search period end: 19 September 2014 02:08
Location: Decatur Area Astronomy Club, 40.0275°N, 88.7810°W

Satellite Date Start Highest point End Downlink Frequencies (MHz)
Time Altitude Azimuth
Oscar 16 18 Sep 02:10:11 02:15:14 49° 100° (E) 02:20:12 437.025 USB, Beacon 2401.1428
ISS 18 Sep 02:15:37 02:16:57 12° 129° (SE) 02:18:18 145.800 FM
Gurwin Techsat 1B 18 Sep 02:28:35 02:31:17 14° 90° (E) 02:33:59 435.225 FM
AO-Echo 18 Sep 02:38:22 02:42:58 43° 99° (E) 02:47:41 ?
Saudisat 1A 18 Sep 02:48:53 02:53:19 86° 58° (ENE) 02:57:43 436.775 MHz
ITAMSAT 1 18 Sep 02:49:39 02:54:41 47° 100° (E) 02:59:42 435.822 SSB
Uribyol 2 18 Sep 02:54:17 02:59:26 56° 101° (E) 03:04:33 436.500 FM
KITSAT 1 18 Sep 02:55:41 03:01:01 18° 32° (NNE) 03:06:19 435.175 FM
UOSAT-12 18 Sep 02:59:53 03:01:13 11° 324° (NW) 03:02:34 437.025 FM, 437.400 FM
TMSAT-1 18 Sep 03:05:38 03:09:51 24° 94° (E) 03:14:03 436.925 FM
Oscar 19 18 Sep 03:11:03 03:15:59 46° 289° (WNW) 03:20:51 437.125 CW, 437.150 USB
Oscar 10/S400 18 Sep 03:16:51 04:25:30 26° 244° (WSW) 07:29:54 145.825 - 145.975 CW/USB, Beacon 145.810 USB
AO-27 18 Sep 03:24:03 03:29:17 80° 285° (WNW) 03:34:30 436.795 MHz FM
RS-15 18 Sep 03:25:29 03:34:19 29° 104° (ESE) 03:43:00 29.354 - 29.394 USB, Beacon 29.352 USB
AO-7 18 Sep 03:41:09 03:45:34 15° 90° (E) 03:49:57 29.400 - 29.500 MHz
PANSAT 18 Sep 03:46:33 03:48:37 14° 175° (S) 03:50:41 not established
OPAL 18 Sep 03:47:21 03:51:38 27° 64° (ENE) 03:55:58 ?
ISS 18 Sep 03:49:56 03:53:15 72° 324° (NW) 03:56:35 145.800 FM
Oscar 16 18 Sep 03:50:27 03:54:11 21° 296° (WNW) 03:57:55 437.025 USB, Beacon 2401.1428
JAS-1B 18 Sep 03:56:19 04:01:49 45° 291° (WNW) 04:07:11 435.800 - 435.900 CW/SSB
Gurwin Techsat 1B 18 Sep 04:06:27 04:11:44 69° 286° (WNW) 04:17:00 435.225 FM
AO-Echo 18 Sep 04:17:56 04:21:28 21° 294° (WNW) 04:25:03 ?
ITAMSAT 1 18 Sep 04:29:58 04:33:50 22° 296° (WNW) 04:37:42 435.822 SSB
Uribyol 2 18 Sep 04:34:55 04:38:26 19° 297° (WNW) 04:41:57 436.500 FM
TMSAT-1 18 Sep 04:44:56 04:49:54 42° 290° (WNW) 04:54:51 436.925 FM
KITSAT 1 18 Sep 04:50:06 04:58:09 65° 56° (NE) 05:06:08 435.175 FM
AO-27 18 Sep 05:07:10 05:07:56 10° 302° (WNW) 05:08:42 436.795 MHz FM
Uosat F 18 Sep 05:25:16 05:30:20 86° 104° (ESE) 05:35:21 435.120 FM
OPAL 18 Sep 05:25:33 05:30:19 38° 260° (W) 05:35:10 ?
PANSAT 18 Sep 05:26:18 05:28:04 13° 188° (S) 05:29:50 not established
ISS 18 Sep 05:28:13 05:30:27 17° 342° (NNW) 05:32:41 145.800 FM
AO-7 18 Sep 05:31:06 05:39:27 83° 107° (ESE) 05:47:44 29.400 - 29.500 MHz
RS-15 18 Sep 05:34:32 05:45:36 74° 304° (NW) 05:56:34 29.354 - 29.394 USB, Beacon 29.352 USB
STRAND 1 18 Sep 06:04:06 06:08:26 29° 67° (ENE) 06:12:47 ?
Hamsat 18 Sep 06:05:15 06:08:43 24° 95° (E) 06:12:08 145.90 MHz
SO-50 18 Sep 06:19:51 06:22:37 15° 40° (NE) 06:25:25 436.795 FM
JAS-2 18 Sep 06:34:09 06:40:04 59° 101° (ESE) 06:46:44 435.800 - 435.900 CW/SSB, 435.910 FM
KITSAT 1 18 Sep 06:46:26 06:52:56 28° 255° (WSW) 06:59:25 435.175 FM
Uosat F 18 Sep 07:06:40 07:08:22 12° 301° (WNW) 07:10:04 435.120 FM
ISS 18 Sep 07:07:04 07:08:15 11° 3° (N) 07:09:25 145.800 FM
SO-67 18 Sep 07:11:29 07:13:36 15° 93° (E) 07:15:43 435.3500 MHz FM
AO-7 18 Sep 07:25:17 07:31:17 23° 306° (NW) 07:37:18 29.400 - 29.500 MHz
Hamsat 18 Sep 07:41:01 07:44:38 27° 291° (WNW) 07:48:11 145.90 MHz
STRAND 1 18 Sep 07:43:00 07:47:31 32° 263° (W) 07:52:04 ?
RS-15 18 Sep 07:51:28 08:00:11 26° 332° (NNW) 08:08:57 29.354 - 29.394 USB, Beacon 29.352 USB
SO-50 18 Sep 07:59:00 08:03:50 88° 239° (WSW) 08:08:43 436.795 FM
UOSAT-12 18 Sep 08:07:04 08:09:42 15° 39° (NE) 08:12:18 437.025 FM, 437.400 FM
MaSat-1 18 Sep 08:10:04 08:14:19 29° 106° (ESE) 08:18:35 437.345 MHz
JAS-2 18 Sep 08:20:22 08:24:49 22° 295° (WNW) 08:29:38 435.800 - 435.900 CW/SSB, 435.910 FM
ISS 18 Sep 08:43:15 08:45:56 22° 23° (NNE) 08:48:36 145.800 FM
SO-67 18 Sep 08:43:43 08:46:40 27° 288° (WNW) 08:49:36 435.3500 MHz FM
UKube-1 18 Sep 09:24:35 09:26:55 14° 92° (E) 09:29:14 145.840 MHz, 145.915 MHz
UOSAT-12 18 Sep 09:45:46 09:50:32 89° 239° (WSW) 09:55:11 437.025 FM, 437.400 FM
MaSat-1 18 Sep 09:46:22 09:50:59 36° 302° (WNW) 09:55:34 437.345 MHz
HO-68 18 Sep 09:56:20 10:03:30 68° 104° (ESE) 10:10:38 435.675 MHz FM
RS-15 18 Sep 10:10:48 10:18:01 19° 9° (N) 10:25:18 29.354 - 29.394 USB, Beacon 29.352 USB
ISS 18 Sep 10:19:36 10:22:53 60° 221° (SW) 10:26:09 145.800 FM
FUNcube-1 18 Sep 10:30:03 10:33:48 24° 94° (E) 10:37:31 145.950 - 145.970 MHz USB
Oscar 11 18 Sep 10:43:50 10:48:13 84° 103° (ESE) 10:52:33 145.825 FM, Beacon 2401.500 USB
UKube-1 18 Sep 10:59:10 11:03:22 49° 288° (WNW) 11:07:34 145.840 MHz, 145.915 MHz
PCSat 18 Sep 11:36:25 11:40:13 20° 106° (ESE) 11:44:03 145.825 MHz
HO-68 18 Sep 11:45:08 11:50:35 24° 302° (WNW) 11:56:01 435.675 MHz FM
FUNcube-1 18 Sep 12:06:05 12:10:12 32° 290° (WNW) 12:14:16 145.950 - 145.970 MHz USB
RS-15 18 Sep 12:24:28 12:34:42 40° 42° (NE) 12:45:14 29.354 - 29.394 USB, Beacon 29.352 USB
Uribyol 2 18 Sep 12:37:53 12:38:06 10° 58° (ENE) 12:38:19 436.500 FM
Oscar 19 18 Sep 12:48:43 12:53:07 29° 67° (ENE) 12:57:33 437.125 CW, 437.150 USB
JAS-1B 18 Sep 12:49:44 12:56:24 27° 63° (ENE) 13:02:16 435.800 - 435.900 CW/SSB
Sapphire 18 Sep 12:50:31 12:55:55 83° 117° (ESE) 13:01:21 437.095 MHz 1200 baud AX-25 AFSK
AO-27 18 Sep 13:04:22 13:07:48 18° 63° (ENE) 13:11:15 436.795 MHz FM
PCSat 18 Sep 13:17:53 13:23:10 55° 302° (WNW) 13:28:31 145.825 MHz
Oscar 16 18 Sep 13:26:23 13:31:32 67° 74° (ENE) 13:36:42 437.025 USB, Beacon 2401.1428
Oscar 10/S400 18 Sep 13:43:31 13:57:08 17° 149° (SSE) 14:08:00 145.825 - 145.975 CW/USB, Beacon 145.810 USB
Gurwin Techsat 1B 18 Sep 13:48:39 13:52:39 22° 64° (ENE) 13:56:40 435.225 FM
AO-Echo 18 Sep 13:50:55 13:55:32 52° 73° (ENE) 14:00:06 ?
ITAMSAT 1 18 Sep 14:07:01 14:12:08 68° 73° (ENE) 14:17:17 435.822 SSB
Uribyol 2 18 Sep 14:11:32 14:16:41 79° 75° (ENE) 14:21:53 436.500 FM
TMSAT-1 18 Sep 14:25:40 14:30:24 35° 68° (ENE) 14:35:10 436.925 FM
Oscar 19 18 Sep 14:27:40 14:32:20 34° 263° (W) 14:37:03 437.125 CW, 437.150 USB
Sapphire 18 Sep 14:36:34 14:40:01 17° 316° (NW) 14:43:30 437.095 MHz 1200 baud AX-25 AFSK
RS-15 18 Sep 14:36:47 14:47:45 67° 245° (WSW) 14:59:12 29.354 - 29.394 USB, Beacon 29.352 USB
JAS-1B 18 Sep 14:37:46 14:46:35 67° 257° (WSW) 14:54:00 435.800 - 435.900 CW/SSB
AO-7 18 Sep 14:39:19 14:45:30 24° 54° (NE) 14:51:39 29.400 - 29.500 MHz
AO-27 18 Sep 14:41:47 14:46:51 56° 259° (W) 14:51:57 436.795 MHz FM
Uosat F 18 Sep 15:02:22 15:04:45 14° 61° (ENE) 15:07:09 435.120 FM
PCSat 18 Sep 15:06:54 15:07:50 10° 323° (NW) 15:08:47 145.825 MHz
Oscar 16 18 Sep 15:08:42 15:11:20 14° 270° (W) 15:13:59 437.025 USB, Beacon 2401.1428
Gurwin Techsat 1B 18 Sep 15:27:12 15:32:17 47° 261° (W) 15:37:24 435.225 FM
AO-Echo 18 Sep 15:31:51 15:34:36 15° 268° (W) 15:37:21 ?
ITAMSAT 1 18 Sep 15:49:32 15:52:06 14° 269° (W) 15:54:40 435.822 SSB
Uribyol 2 18 Sep 15:55:07 15:56:44 11° 271° (W) 15:58:22 436.500 FM
TMSAT-1 18 Sep 16:05:50 16:10:20 28° 265° (W) 16:14:52 436.925 FM
AO-7 18 Sep 16:29:04 16:37:23 80° 253° (WSW) 16:45:44 29.400 - 29.500 MHz
JAS-1B 18 Sep 16:36:17 16:37:55 11° 272° (W) 16:39:30 435.800 - 435.900 CW/SSB
Uosat F 18 Sep 16:37:55 16:42:54 74° 257° (WSW) 16:47:55 435.120 FM
JAS-2 18 Sep 16:48:29 16:52:10 20° 64° (ENE) 16:55:48 435.800 - 435.900 CW/SSB, 435.910 FM
RS-15 18 Sep 16:53:51 16:57:56 13° 264° (W) 17:02:06 29.354 - 29.394 USB, Beacon 29.352 USB
Saudisat 1A 18 Sep 16:55:20 16:58:57 25° 113° (ESE) 17:02:35 436.775 MHz
Hamsat 18 Sep 16:58:34 17:01:28 18° 66° (ENE) 17:04:23 145.90 MHz
OPAL 18 Sep 17:35:42 17:40:50 60° 103° (ESE) 17:45:51 ?
MaSat-1 18 Sep 18:03:42 18:07:23 39° 59° (ENE) 18:10:32 437.345 MHz
AO-7 18 Sep 18:27:12 18:31:19 14° 271° (W) 18:35:27 29.400 - 29.500 MHz
JAS-2 18 Sep 18:31:50 18:36:58 47° 260° (W) 18:41:58 435.800 - 435.900 CW/SSB, 435.910 FM
Hamsat 18 Sep 18:32:59 18:37:06 41° 262° (W) 18:41:14 145.90 MHz
Saudisat 1A 18 Sep 18:34:22 18:38:23 33° 310° (NW) 18:42:24 436.775 MHz
SO-67 18 Sep 19:15:14 19:18:40 83° 77° (ENE) 19:22:09 435.3500 MHz FM
OPAL 18 Sep 19:15:49 19:19:12 18° 300° (WNW) 19:22:32 ?
KITSAT 1 18 Sep 19:17:30 19:25:08 48° 111° (ESE) 19:32:48 435.175 FM
MaSat-1 18 Sep 19:42:24 19:43:29 11° 261° (W) 19:44:31 437.345 MHz
STRAND 1 18 Sep 19:53:27 19:58:37 89° 104° (ESE) 20:03:46 ?
Sapphire 18 Sep 19:58:40 19:59:56 11° 37° (NE) 20:01:13 437.095 MHz 1200 baud AX-25 AFSK
UKube-1 18 Sep 20:20:31 20:22:21 13° 62° (ENE) 20:24:11 145.840 MHz, 145.915 MHz
HO-68 18 Sep 20:24:04 20:30:49 48° 66° (ENE) 20:37:35 435.675 MHz FM
PCSat 18 Sep 20:24:09 20:27:43 17° 44° (NE) 20:31:16 145.825 MHz
KITSAT 1 18 Sep 21:13:07 21:20:38 41° 311° (NW) 21:28:12 435.175 FM
FUNcube-1 18 Sep 21:26:32 21:29:33 18° 65° (ENE) 21:32:37 145.950 - 145.970 MHz USB
STRAND 1 18 Sep 21:35:18 21:37:02 12° 301° (WNW) 21:38:47 ?
Oscar 11 18 Sep 21:37:59 21:42:16 59° 74° (ENE) 21:46:35 145.825 FM, Beacon 2401.500 USB
Sapphire 18 Sep 21:39:13 21:44:35 57° 58° (ENE) 21:49:54 437.095 MHz 1200 baud AX-25 AFSK
UKube-1 18 Sep 21:53:44 21:58:00 61° 258° (WSW) 22:02:19 145.840 MHz, 145.915 MHz
PCSat 18 Sep 22:06:21 22:11:47 80° 243° (WSW) 22:17:11 145.825 MHz
HO-68 18 Sep 22:12:27 22:18:39 32° 264° (W) 22:24:55 435.675 MHz FM
SO-50 18 Sep 22:13:47 22:17:48 34° 114° (ESE) 22:21:54 436.795 FM
FUNcube-1 18 Sep 23:01:28 23:05:35 41° 262° (W) 23:09:51 145.950 - 145.970 MHz USB
KITSAT 1 18 Sep 23:15:06 23:18:40 13° 337° (NNW) 23:22:14 435.175 FM
Oscar 11 18 Sep 23:17:16 23:18:49 12° 270° (W) 23:20:22 145.825 FM, Beacon 2401.500 USB
Sapphire 18 Sep 23:23:47 23:27:31 19° 255° (WSW) 23:31:14 437.095 MHz 1200 baud AX-25 AFSK
SO-50 18 Sep 23:54:31 23:58:22 27° 312° (NW) 00:02:20 436.795 FM
UOSAT-12 18 Sep 23:56:38 00:00:42 32° 114° (ESE) 00:04:51 437.025 FM, 437.400 FM
Saudisat 1A 19 Sep 01:22:24 01:25:43 20° 45° (NE) 01:29:00 436.775 MHz
UOSAT-12 19 Sep 01:36:42 01:40:49 31° 311° (NW) 01:45:01 437.025 FM, 437.400 FM
Oscar 16 19 Sep 01:39:27 01:43:41 25° 95° (E) 01:47:52 437.025 USB, Beacon 2401.1428
AO-Echo 19 Sep 01:59:24 02:02:38 18° 93° (E) 02:05:55 ?
